sat.trackr.live / text

‹ back to catalog

ONEWEB-0249

NORAD 48967 · 2021-060A

PAYLOAD ACTIVE UNKNOWN

§ Identity

Operator
Country
UK
Launch date
2021-07-01
Launch site
VOSTO
Launch vehicle
Mass (kg)
RCS (m²)

Purposes: comms

External: N2YO · Heavens-Above · Gunter

§ Orbital elements

Epoch: 2026-05-24T22:47:44.581056Z

Period
109.37 min
Inclination
87.9107°
Eccentricity
0.0001907
Mean motion
13.16594827 rev/d
Perigee alt
1,196.3 km
Apogee alt
1,199.2 km
Semi-major
7,575.9 km
B*
5.2114e-5
RAAN
233.3915°
Arg perigee
102.6013°
Mean anomaly
257.5331°
Rev number
23,655

§ Raw data

ONEWEB-02491 48967U 21060A   26144.94982154  .00000033  00000+0  52114-4 0  99942 48967  87.9107 233.3915 0001907 102.6013 257.5331 13.16594827236557

JSON: /api/v1/satellites/48967 · /tle

For live sub-satellite position, see the globe view (requires WebGL).

§ Visibility from observer

Set your observer location to see the next 7 days of passes ≥ 10°. The values pass through the URL so the page stays shareable.

No JS? Fill the form by hand. The geolocation button needs JavaScript.